EW6107 Weather Reports


Display with metric or nautical units.
time (UTC)temp
F
wind
direction
speed
MPH
gust
MPH
rain 1hr
in
rain 24hr
in
rain mn
in
humidity
%
barometer
mb
20190721233821 87 130 0.0 2.0 0.00 0.00 0.00 65 1012.8
20190721233321 88 142 0.0 1.0 0.00 0.00 0.00 64 1012.7
20190721232821 88 158 0.0 0.0 0.00 0.00 0.00 64 1012.7
20190721232321 88 158 0.0 0.0 0.00 0.00 0.00 64 1013.0
20190721231820 88 137 0.0 3.0 0.00 0.00 0.00 63 1013.3
20190721231321 88 137 1.0 3.0 0.00 0.00 0.00 63 1013.1
20190721230821 88 124 1.0 3.0 0.00 0.00 0.00 63 1012.8
20190721230320 89 145 0.0 9.0 0.00 0.00 0.00 62 1013.0
20190721225820 89 141 3.0 9.0 0.00 0.00 0.00 61 1012.9
20190721225320 90 100 1.0 5.0 0.00 0.00 0.00 60 1012.9
20190721224820 90 141 0.0 6.0 0.00 0.00 0.00 60 1012.9
20190721224321 91 154 3.0 9.0 0.00 0.00 0.00 61 1012.8
20190721223820 92 92 2.0 4.0 0.00 0.00 0.00 65 1012.8
20190721223319 92 144 0.0 0.0 0.00 0.00 0.00 62 1012.6
20190721222820 92 144 0.0 1.0 0.00 0.00 0.00 61 1012.4
20190721222320 93 144 0.0 1.0 0.00 0.00 0.00 61 1012.4
20190721221820 94 144 0.0 2.0 0.00 0.00 0.00 58 1012.3
20190721221319 94 144 0.0 2.0 0.00 0.00 0.00 58 1012.1
20190721220819 95 145 0.0 1.0 0.00 0.00 0.00 55 1012.0
20190721220318 95 157 0.0 0.0 0.00 0.00 0.00 57 1012.0
20190721215820 95 157 0.0 0.0 0.00 0.00 0.00 57 1012.0
20190721215318 95 157 0.0 1.0 0.00 0.00 0.00 57 1012.1
20190721214818 95 157 0.0 1.0 0.00 0.00 0.00 53 1012.2
20190721214318 96 148 0.0 5.0 0.00 0.00 0.00 53 1012.3
20190721213818 96 127 2.0 5.0 0.00 0.00 0.00 52 1012.2
20190721213319 96 157 3.0 5.0 0.00 0.00 0.00 52 1012.0
20190721212818 96 141 0.0 6.0 0.00 0.00 0.00 51 1012.1
20190721212318 96 109 2.0 6.0 0.00 0.00 0.00 54 1012.2
20190721211818 96 134 1.0 6.0 0.00 0.00 0.00 54 1012.1
20190721211318 96 116 4.0 9.0 0.00 0.00 0.00 53 1012.1
20190721210817 97 124 4.0 11.0 0.00 0.00 0.00 53 1012.1
20190721210318 97 124 3.0 11.0 0.00 0.00 0.00 53 1012.2
20190721205817 97 135 3.0 9.0 0.00 0.00 0.00 51 1012.3
20190721205317 97 127 6.0 9.0 0.00 0.00 0.00 51 1012.4
20190721204817 97 137 4.0 9.0 0.00 0.00 0.00 51 1012.5
20190721204317 97 113 4.0 10.0 0.00 0.00 0.00 53 1012.5
20190721203818 97 107 5.0 10.0 0.00 0.00 0.00 52 1012.5
20190721203318 97 133 2.0 10.0 0.00 0.00 0.00 52 1012.4
20190721202817 96 135 3.0 7.0 0.00 0.00 0.00 54 1012.3
20190721202317 95 137 0.0 6.0 0.00 0.00 0.00 61 1012.3
20190721201817 95 110 3.0 7.0 0.00 0.00 0.00 58 1012.3
20190721201316 95 127 3.0 7.0 0.00 0.00 0.00 56 1012.3
20190721200816 96 80 3.0 6.0 0.00 0.00 0.00 56 1012.3
20190721200316 95 133 2.0 12.0 0.00 0.00 0.00 56 1012.4
20190721195816 95 144 3.0 12.0 0.00 0.00 0.00 56 1012.5
20190721195316 96 94 4.0 11.0 0.00 0.00 0.00 58 1012.5
20190721194816 96 189 4.0 11.0 0.00 0.00 0.00 57 1012.5
20190721194316 96 135 1.0 10.0 0.00 0.00 0.00 59 1012.5
20190721193815 96 140 5.0 11.0 0.00 0.00 0.00 56 1012.6
20190721193316 96 155 5.0 10.0 0.00 0.00 0.00 55 1012.6
20190721192815 97 131 6.0 10.0 0.00 0.00 0.00 54 1012.6
20190721192315 97 118 2.0 5.0 0.00 0.00 0.00 55 1012.5
20190721191817 96 125 2.0 11.0 0.00 0.00 0.00 55 1012.6
20190721191315 97 147 5.0 11.0 0.00 0.00 0.00 55 1012.7
20190721190815 96 104 1.0 11.0 0.00 0.00 0.00 55 1012.7
20190721190314 96 135 4.0 11.0 0.00 0.00 0.00 52 1012.9
20190721185815 96 133 4.0 6.0 0.00 0.00 0.00 54 1013.1
20190721185315 96 140 3.0 5.0 0.00 0.00 0.00 55 1013.2
20190721184814 96 127 3.0 6.0 0.00 0.00 0.00 57 1013.2
20190721184316 96 125 3.0 15.0 0.00 0.00 0.00 54 1013.3
20190721183814 96 128 5.0 15.0 0.00 0.00 0.00 55 1013.3
20190721183314 96 124 6.0 11.0 0.00 0.00 0.00 57 1013.4
20190721182814 96 123 5.0 9.0 0.00 0.00 0.00 55 1013.5
20190721182314 96 106 1.0 7.0 0.00 0.00 0.00 54 1013.4
20190721181814 96 80 3.0 10.0 0.00 0.00 0.00 54 1013.5
20190721181314 96 114 4.0 10.0 0.00 0.00 0.00 56 1013.5
20190721180813 96 138 1.0 10.0 0.00 0.00 0.00 56 1013.7
20190721180314 95 133 2.0 11.0 0.00 0.00 0.00 57 1013.7
20190721175814 95 149 4.0 11.0 0.00 0.00 0.00 55 1013.7
20190721175314 95 97 4.0 11.0 0.00 0.00 0.00 55 1013.9
20190721174813 95 61 4.0 10.0 0.00 0.00 0.00 57 1013.8
20190721174313 95 142 3.0 10.0 0.00 0.00 0.00 57 1013.9
20190721173813 94 138 4.0 7.0 0.00 0.00 0.00 57 1013.8
20190721173313 94 135 3.0 6.0 0.00 0.00 0.00 60 1013.9
20190721172812 94 134 3.0 4.0 0.00 0.00 0.00 57 1013.8
20190721172313 95 141 1.0 9.0 0.00 0.00 0.00 58 1013.8
20190721171813 94 124 4.0 10.0 0.00 0.00 0.00 58 1013.9
20190721171312 94 75 4.0 10.0 0.00 0.00 0.00 60 1013.9
20190721170813 94 133 5.0 10.0 0.00 0.00 0.00 58 1014.0
20190721170313 94 118 4.0 12.0 0.00 0.00 0.00 59 1014.0
20190721165812 94 135 4.0 12.0 0.00 0.00 0.00 59 1014.0
20190721165312 94 106 3.0 7.0 0.00 0.00 0.00 59 1014.0
20190721164811 94 127 2.0 7.0 0.00 0.00 0.00 59 1013.9
20190721164311 94 103 4.0 7.0 0.00 0.00 0.00 61 1014.0
20190721163812 93 134 1.0 10.0 0.00 0.00 0.00 60 1014.0
20190721163311 92 131 1.0 10.0 0.00 0.00 0.00 63 1014.1
20190721162811 92 145 3.0 6.0 0.00 0.00 0.00 62 1014.2
20190721162312 92 133 2.0 6.0 0.00 0.00 0.00 61 1014.2
20190721161811 92 135 3.0 5.0 0.00 0.00 0.00 60 1014.2
20190721161311 92 141 2.0 5.0 0.00 0.00 0.00 62 1014.3
20190721160810 92 125 2.0 6.0 0.00 0.00 0.00 60 1014.2
20190721160311 92 109 2.0 7.0 0.00 0.00 0.00 60 1014.3
20190721155811 93 140 1.0 14.0 0.00 0.00 0.00 60 1014.2
20190721155311 93 121 4.0 10.0 0.00 0.00 0.00 61 1014.2
20190721154810 93 134 4.0 9.0 0.00 0.00 0.00 59 1014.2
20190721154311 94 134 0.0 7.0 0.00 0.00 0.00 61 1014.2
20190721153810 93 133 2.0 7.0 0.00 0.00 0.00 62 1014.3
20190721153310 94 114 4.0 6.0 0.00 0.00 0.00 58 1014.3
20190721152810 93 142 1.0 9.0 0.00 0.00 0.00 63 1014.3
20190721152309 92 144 2.0 9.0 0.00 0.00 0.00 60 1014.3
20190721151810 93 144 2.0 7.0 0.00 0.00 0.00 61 1014.3
20190721151310 93 157 2.0 7.0 0.00 0.00 0.00 62 1014.2
20190721150810 92 212 2.0 9.0 0.00 0.00 0.00 62 1014.3
20190721150309 92 145 4.0 9.0 0.00 0.00 0.00 61 1014.3
20190721145809 92 144 1.0 12.0 0.00 0.00 0.00 60 1014.3
20190721145309 92 80 3.0 12.0 0.00 0.00 0.00 61 1014.2
20190721144809 92 144 3.0 7.0 0.00 0.00 0.00 61 1014.2
20190721144309 92 121 2.0 6.0 0.00 0.00 0.00 61 1014.2
20190721143808 92 149 1.0 4.0 0.00 0.00 0.00 60 1014.1
20190721143308 92 145 1.0 7.0 0.00 0.00 0.00 61 1014.1
20190721142809 92 133 1.0 7.0 0.00 0.00 0.00 62 1014.2
20190721142308 92 106 1.0 3.0 0.00 0.00 0.00 60 1014.2
20190721141808 92 134 0.0 4.0 0.00 0.00 0.00 64 1014.2
20190721141308 91 125 1.0 5.0 0.00 0.00 0.00 65 1014.4
20190721140808 91 124 3.0 5.0 0.00 0.00 0.00 64 1014.3
20190721140307 90 137 2.0 4.0 0.00 0.00 0.00 64 1014.3
20190721135808 90 140 1.0 7.0 0.00 0.00 0.00 67 1014.5
20190721135308 90 141 3.0 9.0 0.00 0.00 0.00 65 1014.5
20190721134807 90 107 4.0 6.0 0.00 0.00 0.00 65 1014.6
20190721134308 90 106 2.0 9.0 0.00 0.00 0.00 66 1014.6
20190721133807 89 133 2.0 9.0 0.00 0.00 0.00 69 1014.8
20190721133307 89 96 3.0 5.0 0.00 0.00 0.00 69 1014.8
20190721132807 89 121 3.0 4.0 0.00 0.00 0.00 70 1014.8
20190721132307 88 145 1.0 6.0 0.00 0.00 0.00 70 1014.9
20190721131807 88 135 3.0 5.0 0.00 0.00 0.00 71 1014.9
20190721131308 88 127 2.0 6.0 0.00 0.00 0.00 71 1014.9
20190721130806 88 157 2.0 6.0 0.00 0.00 0.00 72 1014.9
20190721130307 88 118 2.0 5.0 0.00 0.00 0.00 72 1015.0
20190721125806 87 121 2.0 5.0 0.00 0.00 0.00 70 1014.9
20190721125306 87 140 2.0 4.0 0.00 0.00 0.00 71 1015.0
20190721124806 87 99 1.0 5.0 0.00 0.00 0.00 71 1015.0
20190721124307 87 125 3.0 6.0 0.00 0.00 0.00 72 1014.9
20190721123806 87 106 3.0 5.0 0.00 0.00 0.00 71 1015.0
20190721123307 87 125 2.0 6.0 0.00 0.00 0.00 71 1015.0
20190721122807 87 134 3.0 9.0 0.00 0.00 0.00 71 1014.9
20190721122306 87 92 4.0 9.0 0.00 0.00 0.00 71 1014.9
20190721121806 87 133 1.0 5.0 0.00 0.00 0.00 70 1014.9
20190721121305 87 121 2.0 7.0 0.00 0.00 0.00 72 1014.9
20190721120805 87 125 2.0 7.0 0.00 0.00 0.00 72 1014.9
20190721120305 86 116 2.0 5.0 0.00 0.00 0.00 72 1014.9
20190721115806 86 127 1.0 2.0 0.00 0.00 0.00 74 1014.8
20190721115305 85 130 0.0 3.0 0.00 0.00 0.00 74 1014.7
20190721114805 85 130 0.0 7.0 0.00 0.00 0.00 74 1014.6
20190721114305 84 120 1.0 7.0 0.00 0.00 0.00 75 1014.6
20190721113804 84 124 2.0 7.0 0.00 0.00 0.00 74 1014.6
20190721113305 83 137 1.0 7.0 0.00 0.00 0.00 76 1014.5
20190721112804 83 130 2.0 7.0 0.00 0.00 0.00 76 1014.4
20190721112304 83 127 1.0 7.0 0.00 0.00 0.00 77 1014.4
20190721111805 82 121 2.0 5.0 0.00 0.00 0.00 78 1014.3
20190721111304 82 133 2.0 6.0 0.00 0.00 0.00 79 1014.2
20190721110805 81 134 1.0 3.0 0.00 0.00 0.00 79 1014.1
20190721110303 81 120 1.0 3.0 0.00 0.00 0.00 80 1014.1
20190721105804 81 125 1.0 4.0 0.00 0.00 0.00 82 1014.0
20190721105303 80 131 2.0 2.0 0.00 0.00 0.00 83 1014.0
20190721104804 79 138 0.0 2.0 0.00 0.00 0.00 84 1014.0
20190721104303 78 130 0.0 0.0 0.00 0.00 0.00 86 1013.8
20190721103804 78 130 0.0 0.0 0.00 0.00 0.00 86 1013.6
20190721103303 78 130 0.0 0.0 0.00 0.00 0.00 86 1013.5
20190721102803 78 130 0.0 0.0 0.00 0.00 0.00 87 1013.5
20190721102304 78 130 0.0 4.0 0.00 0.00 0.00 87 1013.5
20190721101804 78 130 0.0 0.0 0.00 0.00 0.00 87 1013.5
20190721101303 78 130 0.0 0.0 0.00 0.00 0.00 87 1013.4
20190721100803 78 130 0.0 0.0 0.00 0.00 0.00 86 1013.4
20190721100303 78 130 0.0 0.0 0.00 0.00 0.00 86 1013.3
20190721095804 78 125 0.0 0.0 0.00 0.00 0.00 85 1013.2
20190721095302 79 125 0.0 0.0 0.00 0.00 0.00 85 1013.1
20190721094802 79 125 0.0 0.0 0.00 0.00 0.00 84 1013.0
20190721094303 79 125 0.0 0.0 0.00 0.00 0.00 83 1013.0
20190721093803 80 125 0.0 0.0 0.00 0.00 0.00 83 1013.0
20190721093302 80 125 0.0 0.0 0.00 0.00 0.00 82 1012.8
20190721092802 80 125 0.0 0.0 0.00 0.00 0.00 82 1012.8
20190721092302 80 124 0.0 0.0 0.00 0.00 0.00 82 1012.6
20190721091803 80 125 0.0 3.0 0.00 0.00 0.00 82 1012.8
20190721091301 80 124 0.0 1.0 0.00 0.00 0.00 83 1012.8
20190721090802 79 124 0.0 3.0 0.00 0.00 0.00 83 1012.8
20190721090301 79 124 0.0 3.0 0.00 0.00 0.00 83 1012.9
20190721085800 79 130 1.0 3.0 0.00 0.00 0.00 83 1012.9
20190721085301 79 137 0.0 2.0 0.00 0.00 0.00 84 1012.7
20190721084801 79 124 0.0 2.0 0.00 0.00 0.00 84 1012.6
20190721084302 79 127 0.0 1.0 0.00 0.00 0.00 84 1012.5
20190721083801 80 127 0.0 0.0 0.00 0.00 0.00 83 1012.6
20190721083301 80 127 0.0 1.0 0.00 0.00 0.00 82 1012.6
20190721082800 80 127 0.0 3.0 0.00 0.00 0.00 82 1012.7
20190721082300 80 116 1.0 1.0 0.00 0.00 0.00 82 1012.8
20190721081800 80 134 1.0 4.0 0.00 0.00 0.00 82 1012.7
20190721081259 80 148 1.0 4.0 0.00 0.00 0.00 82 1012.8
20190721080800 80 124 0.0 2.0 0.00 0.00 0.00 83 1012.8
20190721080259 80 121 1.0 2.0 0.00 0.00 0.00 84 1012.6
20190721075759 79 130 0.0 1.0 0.00 0.00 0.00 84 1012.8
20190721075300 79 133 0.0 2.0 0.00 0.00 0.00 85 1012.9
20190721074759 79 133 0.0 2.0 0.00 0.00 0.00 85 1013.0
20190721074300 79 133 1.0 2.0 0.00 0.00 0.00 87 1013.1
20190721073800 78 135 0.0 0.0 0.00 0.00 0.00 88 1013.0
20190721073300 78 135 0.0 1.0 0.00 0.00 0.00 88 1013.0
20190721072800 78 135 0.0 1.0 0.00 0.00 0.00 89 1013.2
20190721072259 77 135 0.0 1.0 0.00 0.00 0.00 90 1013.0
20190721071759 77 135 0.0 0.0 0.00 0.00 0.00 90 1012.8
20190721071259 77 135 0.0 0.0 0.00 0.00 0.00 89 1012.7
20190721070758 77 135 0.0 0.0 0.00 0.00 0.00 89 1012.8
20190721070259 77 135 0.0 0.0 0.00 0.00 0.00 89 1012.8
20190721065758 77 135 0.0 0.0 0.00 0.00 0.00 89 1012.9
20190721065258 77 135 0.0 0.0 0.00 0.00 0.00 89 1013.0
20190721064758 78 135 0.0 0.0 0.00 0.00 0.00 89 1013.1
20190721064258 78 135 0.0 0.0 0.00 0.00 0.00 89 1013.2
20190721063758 78 135 0.0 0.0 0.00 0.00 0.00 89 1013.2
20190721063258 78 135 0.0 0.0 0.00 0.00 0.00 89 1013.3
20190721062757 78 135 0.0 0.0 0.00 0.00 0.00 89 1013.4
20190721062257 78 135 0.0 0.0 0.00 0.00 0.00 89 1013.4
20190721061757 78 135 0.0 1.0 0.00 0.00 0.00 89 1013.5
20190721061257 77 135 0.0 1.0 0.00 0.00 0.00 90 1013.5
20190721060757 77 135 0.0 0.0 0.00 0.00 0.00 89 1013.7
20190721060257 77 135 0.0 0.0 0.00 0.00 0.00 89 1013.6
20190721055756 77 135 0.0 0.0 0.00 0.00 0.00 89 1013.6
20190721055257 77 135 0.0 0.0 0.00 0.00 0.00 89 1013.7
20190721054757 77 135 0.0 0.0 0.00 0.00 0.00 89 1013.8
20190721054256 77 135 0.0 0.0 0.00 0.00 0.00 89 1013.8
20190721053756 77 135 0.0 0.0 0.00 0.00 0.00 89 1013.8
20190721053256 77 135 0.0 0.0 0.00 0.00 0.00 89 1013.7
20190721052756 77 135 0.0 0.0 0.00 0.00 0.00 89 1013.7
20190721052256 77 135 0.0 0.0 0.00 0.00 0.00 88 1013.8
20190721051756 77 135 0.0 0.0 0.00 0.00 0.00 88 1013.9
20190721051255 78 135 0.0 0.0 0.00 0.00 0.00 88 1013.8
20190721050756 78 135 0.0 0.0 0.00 0.00 0.00 89 1013.9
20190721050255 78 135 0.0 0.0 0.00 0.00 0.00 89 1014.0
20190721045756 78 135 0.0 0.0 0.00 0.00 0.00 89 1014.1
20190721045255 78 135 0.0 0.0 0.00 0.00 0.00 89 1014.1
20190721044756 78 135 0.0 0.0 0.00 0.00 0.00 89 1014.1
20190721044255 78 135 0.0 0.0 0.00 0.00 0.00 90 1014.0
20190721043755 78 135 0.0 0.0 0.00 0.00 0.00 90 1014.0
20190721043255 78 135 0.0 0.0 0.00 0.00 0.00 89 1014.0
20190721042754 78 135 0.0 0.0 0.00 0.00 0.00 89 1013.9
20190721042254 78 135 0.0 0.0 0.00 0.00 0.00 89 1013.9
20190721041754 78 135 0.0 0.0 0.00 0.00 0.00 88 1013.9
20190721041254 78 135 0.0 0.0 0.00 0.00 0.00 88 1014.0
20190721040755 78 135 0.0 0.0 0.00 0.00 0.00 88 1014.0
20190721040255 78 135 0.0 0.0 0.00 0.00 0.00 88 1013.9
20190721035754 78 135 0.0 0.0 0.00 0.00 0.00 88 1013.9
20190721035255 78 135 0.0 0.0 0.00 0.00 0.00 88 1013.8
20190721034755 78 135 0.0 0.0 0.00 0.00 0.00 88 1013.8
20190721034254 79 135 0.0 0.0 0.00 0.00 0.00 88 1013.8
20190721033755 79 135 0.0 0.0 0.00 0.00 0.00 88 1013.8
20190721033255 79 135 0.0 0.0 0.00 0.00 0.00 87 1013.9
20190721032754 79 135 0.0 0.0 0.00 0.00 0.00 87 1013.9
20190721032255 79 135 0.0 0.0 0.00 0.00 0.00 87 1013.9
20190721031754 80 135 0.0 0.0 0.00 0.00 0.00 86 1013.8
20190721031254 80 135 0.0 0.0 0.00 0.00 0.00 86 1013.8
20190721030753 80 135 0.0 0.0 0.00 0.00 0.00 85 1013.9
20190721030254 80 135 0.0 0.0 0.00 0.00 0.00 85 1013.9
20190721025754 81 135 0.0 0.0 0.00 0.00 0.00 84 1013.9
20190721025254 81 135 0.0 0.0 0.00 0.00 0.00 84 1013.8
20190721024753 81 135 0.0 0.0 0.00 0.00 0.00 84 1013.8
20190721024253 81 135 0.0 1.0 0.00 0.00 0.00 83 1013.9
20190721023752 81 135 0.0 1.0 0.00 0.00 0.00 83 1013.8
20190721023252 81 135 0.0 0.0 0.00 0.00 0.00 84 1013.9
20190721022751 81 135 0.0 0.0 0.00 0.00 0.00 84 1013.9
20190721022252 81 135 0.0 0.0 0.00 0.00 0.00 83 1013.8
20190721021752 82 135 0.0 0.0 0.00 0.00 0.00 83 1013.9
20190721021251 82 135 0.0 0.0 0.00 0.00 0.00 82 1013.8
20190721020751 82 135 0.0 0.0 0.00 0.00 0.00 82 1013.8
20190721020253 82 135 0.0 0.0 0.00 0.00 0.00 82 1014.0
20190721015752 82 135 0.0 0.0 0.00 0.00 0.00 82 1014.0
20190721015252 82 135 0.0 0.0 0.00 0.00 0.00 82 1013.9
20190721014752 82 135 0.0 0.0 0.00 0.00 0.00 82 1014.0
20190721014252 82 135 0.0 0.0 0.00 0.00 0.00 81 1013.9
20190721013751 83 135 0.0 0.0 0.00 0.00 0.00 81 1013.9
20190721013252 83 135 0.0 0.0 0.00 0.00 0.00 80 1013.9
20190721012751 83 135 0.0 0.0 0.00 0.00 0.00 79 1013.8
20190721012252 83 135 0.0 0.0 0.00 0.00 0.00 78 1013.6
20190721011751 84 135 0.0 0.0 0.00 0.00 0.00 78 1013.5
20190721011251 84 135 0.0 0.0 0.00 0.00 0.00 77 1013.5
20190721010751 84 135 0.0 0.0 0.00 0.00 0.00 76 1013.4
20190721010249 85 135 0.0 0.0 0.00 0.00 0.00 76 1013.4
20190721005750 85 135 0.0 0.0 0.00 0.00 0.00 76 1013.5
20190721005250 85 135 0.0 0.0 0.00 0.00 0.00 74 1013.5
20190721004750 85 135 0.0 0.0 0.00 0.00 0.00 74 1013.4
20190721004250 86 135 0.0 0.0 0.00 0.00 0.00 74 1013.5
20190721003749 86 135 0.0 0.0 0.00 0.00 0.00 73 1013.4
20190721003249 86 135 0.0 0.0 0.00 0.00 0.00 73 1013.4
20190721002749 86 135 0.0 1.0 0.00 0.00 0.00 72 1013.2
20190721002249 87 135 0.0 1.0 0.00 0.00 0.00 72 1013.1
20190721001749 87 133 0.0 1.0 0.00 0.00 0.00 72 1013.2
20190721001249 87 134 0.0 1.0 0.00 0.00 0.00 71 1013.2
20190721000748 87 134 0.0 0.0 0.00 0.00 0.00 72 1013.3
20190721000249 88 134 0.0 0.0 0.00 0.00 0.00 71 1013.3
20190720235748 88 134 0.0 0.0 0.00 0.00 0.00 70 1013.3
20190720235248 89 134 0.0 0.0 0.00 0.00 0.00 69 1013.4
20190720234749 89 134 0.0 0.0 0.00 0.00 0.00 68 1013.4
20190720234248 89 134 0.0 0.0 0.00 0.00 0.00 67 1013.3